Weather History for Troy, MI

Change the Weather History Date:

Friday, February 1, 2013

  Actual Average (KDET) Record (KDET)
Temperature  
Mean Temperature 18 °F -  
Max Temperature 23 °F 33 °F 54 °F (1968)
Min Temperature 13 °F 19 °F -3 °F (1971)
Degree Days  
Heating Degree Days 47    
Moisture  
Dew Point 8 °F    
Average Humidity 62    
Maximum Humidity 77    
Minimum Humidity 47    
Precipitation  
Precipitation 0.00 in - - ()
Sea Level Pressure  
Sea Level Pressure 30.14 in    
Wind  
Wind Speed 11 mph (West)    
Max Wind Speed 20 mph    
Max Gust Speed 30 mph    
Visibility 10 miles    
Events      
Averages and records for this station are not official NWS values.
T = Trace of Precipitation, MM = Missing Value Source: NWS Daily Summary

Daily Weather History Graph

Daily Weather History Graph

Search for Another Location

Airport:

Trip Planner

Search our weather history database for the weather conditions in past years. The results will help you decide how hot, cold, wet, or windy it might be!

Date:

Astronomy

Feb. 01, 2013 Rise Set
Actual Time 7:46 AM EST 5:46 PM EST
Civil Twilight 7:16 AM EST 6:16 PM EST
Nautical Twilight 6:42 AM EST 6:50 PM EST
Astronomical Twilight 6:09 AM EST 7:23 PM EST
Moon No Moon Rise 10:10 AM EST (2/1)
Length of Visible Light 11h 00m
Length of Day
10h 00m
Waning Gibbous, 70% of the Moon is Illuminated
Feb 1
Waning Gibbous
Feb 3
Last Quarter
Feb 10
New
Feb 17
First Quarter
Feb 25
Full

Hourly Weather History & Observations

Time (EST) Temp. Windchill Dew Point Humidity Pressure Visibility Wind Dir Wind Speed Gust Speed Precip Events Conditions
12:14 AM 20.1 °F 8.1 °F 11.7 °F 70% 29.87 in 10.0 mi WNW 11.5 mph 18.4 mph N/A   Mostly Cloudy
12:35 AM 19.9 °F 7.9 °F 11.3 °F 69% 29.88 in 10.0 mi West 11.5 mph 17.3 mph N/A   Scattered Clouds
1:15 AM 19.6 °F 7.4 °F 11.8 °F 72% 29.89 in 10.0 mi West 11.5 mph - N/A   Mostly Cloudy
1:34 AM 19.4 °F 9.5 °F 12.2 °F 74% 29.90 in 10.0 mi West 8.1 mph 19.6 mph N/A   Scattered Clouds
2:15 AM 19.4 °F 7.9 °F 12.0 °F 73% 29.91 in 10.0 mi West 10.4 mph - N/A   Mostly Cloudy
2:34 AM 19.4 °F 8.6 °F 12.0 °F 73% 29.92 in 10.0 mi West 9.2 mph 17.3 mph N/A   Scattered Clouds
3:15 AM 19.2 °F 6.4 °F 12.2 °F 74% 29.94 in 10.0 mi West 12.7 mph 16.1 mph N/A   Clear
3:34 AM 19.2 °F 9.3 °F 12.2 °F 74% 29.95 in 10.0 mi West 8.1 mph - N/A   Scattered Clouds
4:14 AM 19.2 °F 10.2 °F 12.2 °F 74% 29.97 in 10.0 mi West 6.9 mph 16.1 mph N/A   Mostly Cloudy
4:35 AM 19.0 °F 8.2 °F 12.0 °F 74% 29.97 in 10.0 mi West 9.2 mph - N/A   Overcast
5:14 AM 18.5 °F 6.8 °F 12.2 °F 76% 30.00 in 10.0 mi West 10.4 mph 19.6 mph N/A   Scattered Clouds
5:35 AM 18.3 °F 7.3 °F 12.2 °F 77% 30.01 in 10.0 mi West 9.2 mph - N/A   Scattered Clouds
6:15 AM 18.3 °F 7.3 °F 11.3 °F 74% 30.03 in 10.0 mi West 9.2 mph - N/A   Scattered Clouds
6:34 AM 18.3 °F 4.6 °F 11.3 °F 74% 30.05 in 10.0 mi West 13.8 mph 20.7 mph N/A   Scattered Clouds
6:55 AM 18.1 °F 6.3 °F 10.8 °F 73% 30.06 in 10.0 mi West 10.4 mph 19.6 mph N/A   Scattered Clouds
7:14 AM 18.0 °F 7.7 °F 10.6 °F 73% 30.07 in 10.0 mi West 8.1 mph - N/A   Scattered Clouds
7:34 AM 17.6 °F 8.2 °F 10.4 °F 73% 30.08 in 10.0 mi West 6.9 mph - N/A   Clear
7:54 AM 17.6 °F 6.4 °F 10.2 °F 73% 30.09 in 10.0 mi West 9.2 mph - N/A   Clear
8:14 AM 17.6 °F 6.4 °F 9.9 °F 72% 30.10 in 10.0 mi West 9.2 mph - N/A   Clear
8:35 AM 18.1 °F 5.6 °F 10.2 °F 71% 30.11 in 10.0 mi West 11.5 mph 16.1 mph N/A   Clear
8:54 AM 18.5 °F 7.5 °F 10.4 °F 71% 30.12 in 10.0 mi West 9.2 mph 16.1 mph N/A   Clear
9:15 AM 19.2 °F 7.0 °F 10.9 °F 70% 30.13 in 10.0 mi West 11.5 mph 19.6 mph N/A   Clear
9:34 AM 19.8 °F 9.1 °F 11.1 °F 69% 30.14 in 10.0 mi West 9.2 mph 19.6 mph N/A   Scattered Clouds
9:54 AM 20.5 °F 10.0 °F 10.9 °F 67% 30.15 in 10.0 mi West 9.2 mph 17.3 mph N/A   Scattered Clouds
10:14 AM 21.0 °F 8.1 °F 10.2 °F 63% 30.16 in 10.0 mi WNW 13.8 mph 19.6 mph N/A   Mostly Cloudy
10:34 AM 21.0 °F 5.7 °F 7.7 °F 56% 30.17 in 10.0 mi WNW 19.6 mph 25.3 mph N/A   Scattered Clouds
10:54 AM 21.9 °F 7.8 °F 7.0 °F 53% 30.17 in 10.0 mi WNW 17.3 mph 24.2 mph N/A   Mostly Cloudy
11:14 AM 21.9 °F 6.9 °F 5.4 °F 49% 30.18 in 10.0 mi West 19.6 mph 25.3 mph N/A   Mostly Cloudy
11:34 AM 21.9 °F 8.2 °F 6.1 °F 51% 30.18 in 10.0 mi WNW 16.1 mph 27.6 mph N/A   Overcast
11:54 AM 22.1 °F 8.9 °F 5.0 °F 48% 30.18 in 10.0 mi WNW 15.0 mph 29.9 mph N/A   Overcast
12:15 PM 22.1 °F 12.0 °F 5.4 °F 49% 30.19 in 10.0 mi West 9.2 mph 21.9 mph N/A   Overcast
12:34 PM 22.8 °F 9.4 °F 5.5 °F 48% 30.19 in 10.0 mi WNW 16.1 mph 24.2 mph N/A   Overcast
12:55 PM 23.2 °F 11.4 °F 6.1 °F 48% 30.19 in 10.0 mi West 12.7 mph 21.9 mph N/A   Overcast
1:14 PM 23.4 °F 10.6 °F 6.8 °F 49% 30.19 in 10.0 mi West 15.0 mph 23.0 mph N/A   Overcast
1:35 PM 22.8 °F 12.2 °F 5.5 °F 48% 30.19 in 10.0 mi West 10.4 mph 24.2 mph N/A   Overcast
1:54 PM 23.0 °F 10.6 °F 5.4 °F 47% 30.19 in 10.0 mi West 13.8 mph 21.9 mph N/A   Overcast
2:15 PM 22.8 °F 9.9 °F 5.7 °F 48% 30.19 in 10.0 mi WSW 15.0 mph 23.0 mph N/A   Mostly Cloudy
2:35 PM 23.0 °F 12.4 °F 5.7 °F 48% 30.19 in 10.0 mi West 10.4 mph 21.9 mph N/A   Overcast
2:54 PM 23.0 °F 10.6 °F 7.0 °F 50% 30.20 in 10.0 mi West 13.8 mph 20.7 mph N/A   Overcast
3:15 PM 22.1 °F 12.0 °F 10.2 °F 60% 30.20 in 10.0 mi West 9.2 mph 20.7 mph N/A   Overcast
3:34 PM 22.3 °F 9.2 °F 8.1 °F 54% 30.20 in 10.0 mi WSW 15.0 mph 19.6 mph N/A   Overcast
3:55 PM 22.1 °F 11.3 °F 7.5 °F 54% 30.21 in 10.0 mi WSW 10.4 mph 17.3 mph N/A   Overcast
4:14 PM 21.9 °F 11.7 °F 7.2 °F 53% 30.22 in 10.0 mi West 9.2 mph 23.0 mph N/A   Overcast
4:34 PM 21.6 °F 12.1 °F 7.3 °F 54% 30.22 in 10.0 mi West 8.1 mph 17.3 mph N/A   Overcast
4:55 PM 21.2 °F 7.8 °F 6.8 °F 54% 30.22 in 10.0 mi WSW 15.0 mph 19.6 mph N/A   Overcast
5:14 PM 21.0 °F 9.9 °F 7.2 °F 55% 30.22 in 10.0 mi WSW 10.4 mph 17.3 mph N/A   Overcast
5:35 PM 20.3 °F 7.7 °F 8.6 °F 61% 30.22 in 10.0 mi WSW 12.7 mph 20.7 mph N/A   Overcast
5:54 PM 19.4 °F 6.6 °F 7.7 °F 60% 30.22 in 10.0 mi WSW 12.7 mph 20.7 mph N/A   Overcast
6:14 PM 19.0 °F 6.8 °F 6.4 °F 58% 30.23 in 10.0 mi WSW 11.5 mph 18.4 mph N/A   Overcast
6:34 PM 18.1 °F 5.6 °F 5.5 °F 58% 30.24 in 10.0 mi SW 11.5 mph 18.4 mph N/A   Overcast
6:54 PM 17.6 °F 4.3 °F 4.6 °F 57% 30.24 in 10.0 mi WSW 12.7 mph 21.9 mph N/A   Overcast
7:15 PM 17.4 °F 3.5 °F 4.5 °F 57% 30.25 in 10.0 mi WSW 13.8 mph 21.9 mph N/A   Overcast
7:34 PM 16.5 °F 3.6 °F 3.7 °F 57% 30.25 in 10.0 mi WSW 11.5 mph 18.4 mph N/A   Overcast
7:54 PM 16.3 °F 2.7 °F 3.7 °F 58% 30.25 in 10.0 mi WSW 12.7 mph 19.6 mph N/A   Overcast
8:15 PM 15.6 °F 2.5 °F 3.2 °F 58% 30.26 in 10.0 mi WSW 11.5 mph 18.4 mph N/A   Overcast
8:34 PM 15.8 °F 2.7 °F 3.9 °F 60% 30.26 in 10.0 mi WSW 11.5 mph 23.0 mph N/A   Overcast
9:00 PM 14.7 °F 0.1 °F 2.3 °F 58% 30.26 in 10.0 mi WSW 13.8 mph 21.9 mph N/A   Mostly Cloudy
9:14 PM 14.4 °F -1.0 °F 2.5 °F 59% 30.26 in 10.0 mi SW 15.0 mph 19.6 mph N/A   Scattered Clouds
9:35 PM 13.6 °F 3.5 °F 2.3 °F 61% 30.26 in 10.0 mi WSW 6.9 mph - N/A   Clear
9:54 PM 13.6 °F 0.7 °F 2.3 °F 61% 30.26 in 10.0 mi SW 10.4 mph 17.3 mph N/A   Scattered Clouds
10:14 PM 14.0 °F 2.0 °F 3.0 °F 62% 30.25 in 10.0 mi SW 9.2 mph - N/A   Mostly Cloudy
10:34 PM 14.0 °F 1.2 °F 3.2 °F 62% 30.25 in 10.0 mi SW 10.4 mph - N/A   Mostly Cloudy
10:54 PM 13.8 °F 1.8 °F 3.2 °F 63% 30.25 in 10.0 mi SSW 9.2 mph - N/A   Scattered Clouds
11:15 PM 14.2 °F 3.1 °F 3.9 °F 64% 30.23 in 10.0 mi SSW 8.1 mph - N/A   Mostly Cloudy
11:34 PM 14.7 °F 3.8 °F 4.3 °F 63% 30.23 in 10.0 mi SSW 8.1 mph - N/A   Overcast
11:54 PM 15.1 °F 2.5 °F 5.0 °F 64% 30.22 in 10.0 mi SW 10.4 mph 16.1 mph N/A   Overcast